Voltar ao catálogo

NOAA 16 DEB

AtivoSSO
NORAD 42382·DEBRIS·🇺🇸 United States

Lançado Sep 21, 2000 de Vandenberg Space Force Base

Loading…

Próximas Passagens (próximas 24 horas)

TLE

AtualizadoSource: Space-Track

Época: Sep 14, 2026, 05:52 UTC

1 42382U 00055SA  26257.24505404  .00003286  00000-0  12976-2 0  9991
2 42382  98.8969   1.3180 0035263 278.9935  80.7256 14.29407363541811

Acompanhe NOAA 16 DEB em tempo real com AllMySat

Download on the App Store